Regional Weather Roundup
Issued by NWS

Home | Current Version | Previous Version | Graphics & Text | Print | Product List | Glossary On
Versions: 1 2 3 4 5 6 7 8 9 10 11 12 13 14 15 16 17 18 19 20 21 22 23 24 25 26 27 28 29 30 31 32 33 34 35 36 37 38 39 40 41 42 43 44 45 46 47 48 49 50
000
ASUS45 KABQ 061610
RWRNM
WEATHER ROUNDUP FOR NEW MEXICO
NATIONAL WEATHER SERVICE ALBUQUERQUE NM
900 AM MST FRI MAR 06 2015

NOTE: "FAIR" MEANS FEW OR NO CLOUDS BELOW 12,000 FEET AGL WITH NO
       SIGNIFICANT WEATHER OR OBSTRUCTIONS TO VISION.

      THIS PRODUCT IS RELEASED AS TWO VERSIONS.  ONE VERSION NEAR
      THE TOP OF THE HOUR CONTAINING PRELIMINARY DATA FROM ALBUQUERQUE
      AND OTHER STATIONS.  A FINAL VERSION WITH ADDITIONAL DATA IS
      ISSUED ABOUT 10 MINUTES AFTER THE HOUR.

NMZ501-503-504-510>518-061700-
NORTHWEST PLATEAU/NORTHCENTRAL MOUNTAINS

CITY           SKY/WX    TMP DP  RH WIND       PRES   REMARKS
FARMINGTON     SUNNY     31  21  66 E5        30.43R WCI  26
LOS ALAMOS     SUNNY     32  15  48 E5        30.41R WCI  28
SANTA FE       SUNNY     36  12  37 N17       30.39R WCI  26
TAOS           SUNNY     28  12  50 CALM      30.44R
ANGEL FIRE     FAIR       8   2  78 CALM      30.43R

$$
NMZ402-403-502-505>509-061700-
WESTCENTRAL MOUNTAINS/SOUTHWEST MOUNTAINS

CITY           SKY/WX    TMP DP  RH WIND       PRES   REMARKS
GALLUP         SUNNY     33  19  56 CALM      30.42R
GRANTS         SUNNY     32  18  56 N10G17    30.43S WCI  23
SILVER CITY    SUNNY     39  16  38 SE5       30.39R

$$
NMZ407-409-411-412-061700-
SOUTHERN DESERTS

CITY           SKY/WX    TMP DP  RH WIND       PRES   REMARKS
LORDSBURG      FAIR      45  21  39 E20G25    30.35S
DEMING         SUNNY     42  23  46 E13       30.39R
LAS CRUCES     SUNNY     42  23  45 CALM      30.41R
HOLLOMAN AFB   SUNNY     41  24  51 W3        30.40R
ALAMOGORDO     SUNNY     39  27  60 SE5       30.42R
T OR C         SUNNY     43  16  33 NE6       30.39R

$$
NMZ519>523-061700-
CENTRAL VALLEYS/CENTRAL HIGHLANDS

CITY           SKY/WX    TMP DP  RH WIND       PRES   REMARKS
ALBUQUERQUE    SUNNY     38  16  40 N6        30.42R WCI  33
DOUBLE EAGLE   SUNNY     37  16  41 N8        30.41R WCI  31
MORIARTY ARPT  FAIR      38  18  44 N7        30.40S WCI  33
CLINES CORNERS SUNNY     36  15  42 NW12      30.35R WCI  28
BELEN          FAIR      40  15  37 CALM      30.43R
SOCORRO          N/A     38  16  41 N5        30.42S WCI  34

$$
NMZ524>526-539-540-061700-
SOUTHCENTRAL MOUNTAINS

CITY           SKY/WX    TMP DP  RH WIND       PRES   REMARKS
RUIDOSO        SUNNY     41  10  28 NE3       30.41R

$$
NMZ527>531-061700-
NORTHEAST HIGHLANDS/NORTHEAST PLAINS

CITY           SKY/WX    TMP DP  RH WIND       PRES   REMARKS
LAS VEGAS      SUNNY     41  15  35 NE3       30.37R
RATON          SUNNY     33  23  66 NE6       30.36R WCI  28
CLAYTON        SUNNY     46  20  35 NE6       30.35R

$$
NMZ532>537-061700-
EASTCENTRAL PLAINS

CITY           SKY/WX    TMP DP  RH WIND       PRES   REMARKS
TUCUMCARI      SUNNY     37  28  70 W8        30.37R WCI  31
CANNON AFB     MOSUNNY   30  27  90 W10       30.38R WCI  21
CLOVIS AIRPORT SUNNY     34  27  75 W13       30.38R WCI  25

$$
NMZ028-029-538-061700-
SOUTHEAST PLAINS

CITY           SKY/WX    TMP DP  RH WIND       PRES   REMARKS
ROSWELL        CLOUDY    28  26  92 SE7       30.43R FOG     WCI  21
ARTESIA        FOG       27  27 100 SE7       30.45R VSB<1/4 WCI  19
CARLSBAD       FOG       29  27  92 SE5       30.44S VSB 1/4 WCI  24
HOBBS          SUNNY     34  28  80 S10       30.44R WCI  26


$$


USA.gov is the U.S. government's official web portal to all federal, state and local government web resources and services.